Showing default

ICEYE-X39, 60546

Orbit data source: Space-Track

ICEYE-X39, 60546 is a Brazilian payload satellite in SSO that was launched on Fri, 16 Aug 2024 UTC via an FALCON 9 launch vehicle from the Air Force Western Test Range (AFWTR). Payload-class satellites include a variety of spacecraft equipped with specific instruments for various scientific and technological missions. These include communications satellites like Starlink; space stations such as the ISS; scientific satellites like the Hubble; Earth observation satellites from companies like Planet Labs, Umbra, and HawkEye 360; GPS; miniature CubeSats for education and research; and military/defense satellites.

Loading next visibility...
Identifier
60546, 2024-149CG
Orbit
SSO
Country
Flag of BRBR / BRAZ
Related business
Manufacturer
ICEYE
Mission
Operational Commercial Radar Imaging
Bus & Motor
ICEYE, Unknown motor
Mass
80 kg wet, 80 kg dry
Launch date (UTC)
2024-08-16 (2 years ago)
Launch vehicle
FALCON 9
Launch site
Air Force Western Test Range (AFWTR)
Object type
Payload
Rocket body
Debris
Shape & HBR
Box + 1 Pan, 1.4 m
Radar Cross Section
0.776 m², Medium (>0.1 m² and < 1m²)

Expand to show TLE details & history
Last TLE update: 8 hours ago

TLE from 8 hours ago
0 ICEYE-X39
1 60546U 24149CG  26126.17769154  .00003745  00000-0  30846-3 0  9991
2 60546  97.6832 203.7685 0001811 181.6358 178.4859 14.99678568 93829
Epoch: 2026-05-06T04:15Z
TLE epoch observation values (Epoch: 2026-05-06T04:15:52.549Z)
Latitude
-0.00007°
Longitude
-84.24237°
Altitude
572.201 km
Speed
7.574 km/s
True Right ascension
13h 35m 04s
True Declination
0° 00' 00"
Sunlit
Object was in full shadow at epoch
Visualization orbit readout
Latitude
Unknown
Longitude
Unknown
Altitude
Unknown
Speed
Unknown
Apparent Right ascension
Unknown
Apparent Declination
Unknown
Sunlit
N/A
Visualization observer readout
Local Sidereal Time
20:06:23
Azimuth
Unknown
Elevation
Unknown
Doppler factor
Unknown
Orbital elements
Apogee altitude
566.151 km
Perigee altitude
563.636 km
Semi-major axis
6,943.031 km
Eccentricity
0.00018
Inclination
97.6832°
RAAN
203.7685°
Arg. of periapsis
181.6358°
True anomaly
178.48645°
Mean anomaly
178.4859°
Eccentric anomaly
178.48617°
Mean motion
3.75163 °/min
Orbital period
95.96 mins
BSTAR
0.00030846
Loading maneuver chart data...
Computing Atmospheric mass density...
Loading historical data...
Loading historical data...
Loading historical data...
Loading historical data...
Loading historical data...
Loading historical data...
Loading historical data...

Documentation

Showing up to 5 results
|